Caldwell, ID

6:14 AM MDT on August 17, 2017 (GMT -0600)
Caldwell Industrial

Weather History for KEUL - January, 2014

Change the Weather History Date:

Wednesday, January 22, 2014

  Actual Average (KBOI) Record (KBOI)
Temperature  
Mean Temperature 26 °F -  
Max Temperature 28 °F 37 °F 55 °F (1878)
Min Temperature 24 °F 23 °F -16 °F (1930)
Degree Days  
Heating Degree Days 39    
Moisture  
Dew Point 19 °F    
Average Humidity 74    
Maximum Humidity 80    
Minimum Humidity 69    
Precipitation  
Precipitation 0.00 in - - ()
Sea Level Pressure  
Sea Level Pressure 30.34 in    
Wind  
Wind Speed 3 mph (NNW)    
Max Wind Speed 8 mph    
Max Gust Speed -    
Visibility 7 miles    
Events      
Averages and records for this station are not official NWS values.
T = Trace of Precipitation, MM = Missing Value Source: NWS Daily Summary

Daily Weather History Graph

Daily Weather History Graph

Search for Another Location

Airport or City:

Trip Planner

Search our weather history database for the weather conditions in past years. The results will help you decide how hot, cold, wet, or windy it might be!

Date:

Astronomy

Jan. 22, 2014 Rise Set
Actual Time 8:12 AM MST 5:44 PM MST
Civil Twilight 7:41 AM MST 6:15 PM MST
Nautical Twilight 7:06 AM MST 6:50 PM MST
Astronomical Twilight 6:32 AM MST 7:24 PM MST
Moon No Moon Rise 11:02 AM MST (1/22)
Length of Visible Light 10h 34m
Length of Day
9h 32m
Waning Gibbous, 65% of the Moon is Illuminated
Jan 22
Waning Gibbous
Jan 23
Last Quarter
Jan 30
New
Feb 6
First Quarter
Feb 14
Full

Hourly Weather History & Observations

Time (MST) Temp. Windchill Dew Point Humidity Pressure Visibility Wind Dir Wind Speed Gust Speed Precip Events Conditions
12:15 AM 28.4 °F - 19.4 °F 69% 30.41 in 8.0 mi Calm Calm - N/A   Overcast
12:35 AM 28.4 °F 23.3 °F 19.4 °F 69% 30.41 in 8.0 mi NW 4.6 mph - N/A   Overcast
12:55 AM 26.6 °F - 19.4 °F 74% 30.41 in 8.0 mi Calm Calm - N/A   Overcast
1:15 AM 26.6 °F - 19.4 °F 74% 30.40 in 8.0 mi Calm Calm - N/A   Overcast
1:35 AM 26.6 °F - 19.4 °F 74% 30.41 in 8.0 mi Calm Calm - N/A   Overcast
1:55 AM 28.4 °F - 19.4 °F 69% 30.40 in 7.0 mi Calm Calm - N/A   Overcast
2:15 AM 28.4 °F 24.6 °F 19.4 °F 69% 30.40 in 7.0 mi NE 3.5 mph - N/A   Overcast
2:35 AM 26.6 °F - 19.4 °F 74% 30.40 in 7.0 mi Calm Calm - N/A   Overcast
2:55 AM 26.6 °F - 19.4 °F 74% 30.39 in 7.0 mi Calm Calm - N/A   Overcast
3:15 AM 26.6 °F - 19.4 °F 74% 30.40 in 7.0 mi Calm Calm - N/A   Overcast
3:35 AM 26.6 °F 22.6 °F 19.4 °F 74% 30.40 in 6.0 mi NNE 3.5 mph - N/A   Overcast
3:55 AM 26.6 °F 22.6 °F 19.4 °F 74% 30.38 in 5.0 mi NNE 3.5 mph - N/A   Overcast
4:15 AM 26.6 °F 22.6 °F 19.4 °F 74% 30.38 in 6.0 mi East 3.5 mph - N/A   Overcast
4:35 AM 26.6 °F 22.6 °F 19.4 °F 74% 30.37 in 5.0 mi ENE 3.5 mph - N/A   Overcast
4:55 AM 26.6 °F - 19.4 °F 74% 30.36 in 5.0 mi Calm Calm - N/A   Overcast
5:15 AM 26.6 °F - 19.4 °F 74% 30.36 in 5.0 mi Calm Calm - N/A   Overcast
5:35 AM 26.6 °F - 19.4 °F 74% 30.36 in 5.0 mi Calm Calm - N/A   Overcast
5:55 AM 26.6 °F - 19.4 °F 74% 30.36 in 5.0 mi Calm Calm - N/A   Overcast
6:15 AM 26.6 °F 22.6 °F 19.4 °F 74% 30.35 in 4.0 mi NNW 3.5 mph - N/A   Overcast
6:35 AM 26.6 °F 21.2 °F 19.4 °F 74% 30.35 in 4.0 mi North 4.6 mph - N/A   Overcast
6:55 AM 26.6 °F - 19.4 °F 74% 30.35 in 4.0 mi Calm Calm - N/A   Overcast
7:15 AM 26.6 °F 21.2 °F 19.4 °F 74% 30.35 in 5.0 mi NW 4.6 mph - N/A   Overcast
7:35 AM 26.6 °F 19.1 °F 19.4 °F 74% 30.35 in 5.0 mi NW 6.9 mph - N/A   Overcast
7:55 AM 26.6 °F 22.6 °F 19.4 °F 74% 30.35 in 5.0 mi NNW 3.5 mph - N/A   Overcast
8:15 AM 26.6 °F 22.6 °F 19.4 °F 74% 30.35 in 5.0 mi NW 3.5 mph - N/A   Overcast
8:35 AM 26.6 °F - 19.4 °F 74% 30.34 in 3.0 mi Calm Calm - N/A   Overcast
8:55 AM 26.6 °F 21.2 °F 19.4 °F 74% 30.35 in 4.0 mi West 4.6 mph - N/A   Overcast
9:15 AM 26.6 °F - 19.4 °F 74% 30.35 in 5.0 mi Calm Calm - N/A   Overcast
9:35 AM 26.6 °F 20.0 °F 19.4 °F 74% 30.35 in 3.0 mi NNW 5.8 mph - N/A   Overcast
9:55 AM 26.6 °F 22.6 °F 19.4 °F 74% 30.35 in 2.5 mi WNW 3.5 mph - N/A   Overcast
10:15 AM 26.6 °F 20.0 °F 19.4 °F 74% 30.34 in 1.8 mi North 5.8 mph - N/A   Overcast
10:35 AM 26.6 °F 20.0 °F 19.4 °F 74% 30.34 in 2.5 mi North 5.8 mph - N/A   Overcast
10:55 AM 26.6 °F 20.0 °F 19.4 °F 74% 30.34 in 3.0 mi North 5.8 mph - N/A   Overcast
11:15 AM 26.6 °F 19.1 °F 19.4 °F 74% 30.34 in 4.0 mi North 6.9 mph - N/A   Overcast
11:35 AM 26.6 °F 20.0 °F 19.4 °F 74% 30.33 in 5.0 mi NW 5.8 mph - N/A   Overcast
11:55 AM 26.6 °F 21.2 °F 19.4 °F 74% 30.32 in 7.0 mi West 4.6 mph - N/A   Overcast
12:15 PM 26.6 °F 20.0 °F 19.4 °F 74% 30.32 in 7.0 mi WNW 5.8 mph - N/A   Overcast
12:35 PM 26.6 °F 19.1 °F 19.4 °F 74% 30.32 in 8.0 mi NNW 6.9 mph - N/A   Overcast
12:55 PM 26.6 °F 22.6 °F 19.4 °F 74% 30.31 in 8.0 mi NW 3.5 mph - N/A   Overcast
1:15 PM 26.6 °F 19.1 °F 19.4 °F 74% 30.30 in 10.0 mi NW 6.9 mph - N/A   Overcast
1:35 PM 26.6 °F 19.1 °F 19.4 °F 74% 30.30 in 10.0 mi North 6.9 mph - N/A   Overcast
1:55 PM 26.6 °F 20.0 °F 19.4 °F 74% 30.29 in 10.0 mi NNW 5.8 mph - N/A   Overcast
2:15 PM 26.6 °F 18.2 °F 19.4 °F 74% 30.29 in 10.0 mi NNW 8.1 mph - N/A   Overcast
2:35 PM 26.6 °F 19.1 °F 19.4 °F 74% 30.28 in 10.0 mi NNW 6.9 mph - N/A   Overcast
2:55 PM 26.6 °F 21.2 °F 19.4 °F 74% 30.27 in 10.0 mi NW 4.6 mph - N/A   Overcast
3:15 PM 26.6 °F 19.1 °F 19.4 °F 74% 30.28 in 10.0 mi NW 6.9 mph - N/A   Overcast
3:35 PM 26.6 °F 19.1 °F 17.6 °F 69% 30.28 in 10.0 mi NW 6.9 mph - N/A   Overcast
3:55 PM 26.6 °F 22.6 °F 19.4 °F 74% 30.29 in 10.0 mi NNW 3.5 mph - N/A   Overcast
4:15 PM 26.6 °F 18.2 °F 19.4 °F 74% 30.29 in 10.0 mi NW 8.1 mph - N/A   Overcast
4:35 PM 26.6 °F 20.0 °F 19.4 °F 74% 30.29 in 8.0 mi NW 5.8 mph - N/A   Overcast
4:55 PM 26.6 °F 19.1 °F 19.4 °F 74% 30.29 in 9.0 mi NW 6.9 mph - N/A   Overcast
5:15 PM 24.8 °F 16.9 °F 19.4 °F 80% 30.29 in 8.0 mi NW 6.9 mph - N/A   Overcast
5:35 PM 26.6 °F 19.1 °F 17.6 °F 69% 30.28 in 6.0 mi NNW 6.9 mph - N/A   Overcast
5:55 PM 24.8 °F 17.9 °F 17.6 °F 74% 30.29 in 7.0 mi North 5.8 mph - N/A   Overcast
6:15 PM 24.8 °F 16.1 °F 17.6 °F 74% 30.29 in 8.0 mi North 8.1 mph - N/A   Overcast
6:35 PM 24.8 °F 16.9 °F 17.6 °F 74% 30.29 in 10.0 mi NNW 6.9 mph - N/A   Overcast
6:55 PM 24.8 °F 17.9 °F 17.6 °F 74% 30.29 in 10.0 mi North 5.8 mph - N/A   Overcast
7:15 PM 24.8 °F 16.9 °F 17.6 °F 74% 30.30 in 10.0 mi NNW 6.9 mph - N/A   Overcast
7:35 PM 24.8 °F 20.5 °F 17.6 °F 74% 30.30 in 10.0 mi North 3.5 mph - N/A   Overcast
7:55 PM 24.8 °F - 17.6 °F 74% 30.31 in 10.0 mi Calm Calm - N/A   Overcast
8:15 PM 24.8 °F - 17.6 °F 74% 30.31 in 10.0 mi Calm Calm - N/A   Overcast
8:35 PM 24.8 °F - 17.6 °F 74% 30.32 in 9.0 mi Calm Calm - N/A   Overcast
8:55 PM 24.8 °F 20.5 °F 17.6 °F 74% 30.31 in 9.0 mi South 3.5 mph - N/A   Overcast
9:15 PM 24.8 °F - 17.6 °F 74% 30.32 in 8.0 mi Calm Calm - N/A   Overcast
9:35 PM 24.8 °F - 17.6 °F 74% 30.32 in 8.0 mi Calm Calm - N/A   Overcast
9:55 PM 24.8 °F 20.5 °F 17.6 °F 74% 30.33 in 8.0 mi East 3.5 mph - N/A   Overcast
10:15 PM 24.8 °F - 17.6 °F 74% 30.33 in 8.0 mi Calm Calm - N/A   Overcast
10:35 PM 24.8 °F 20.5 °F 17.6 °F 74% 30.34 in 4.0 mi East 3.5 mph - N/A   Overcast
10:55 PM 24.8 °F 20.5 °F 17.6 °F 74% 30.35 in 5.0 mi ESE 3.5 mph - N/A   Overcast
11:15 PM 24.8 °F - 17.6 °F 74% 30.36 in 5.0 mi Calm Calm - N/A   Overcast
11:35 PM 24.8 °F - 17.6 °F 74% 30.36 in 4.0 mi Calm Calm - N/A   Overcast
11:55 PM 24.8 °F - 17.6 °F 74% 30.36 in 5.0 mi Calm Calm - N/A   Overcast